| time (UTC) | temp F | wind direction | speed knots | gust knots | rain 1hr in | rain 24hr in | rain mn in | humidity % | barometer mb |
| 20260505051520 | 60 | 172 | 0.0 | 0.0 | 0.00 | 0.00 | 0.00 | 68 | 998.1 |
| 20260505041513 | 61 | 161 | 0.0 | 0.0 | 0.00 | 0.00 | 0.00 | 61 | 998.0 |
| 20260505040009 | 62 | 163 | 0.0 | 0.0 | 0.00 | 0.00 | 0.00 | 60 | 997.9 |
| 20260505034510 | 62 | 182 | 0.0 | 0.0 | 0.00 | 0.00 | 0.00 | 58 | 997.9 |
| 20260505033108 | 62 | 185 | 0.0 | 0.0 | 0.00 | 0.00 | 0.00 | 57 | 998.0 |
| 20260505031521 | 63 | 180 | 0.0 | 0.0 | 0.00 | 0.00 | 0.00 | 56 | 998.0 |
| 20260505030009 | 63 | 155 | 0.0 | 0.0 | 0.00 | 0.00 | 0.00 | 55 | 998.0 |
| 20260505024513 | 63 | 183 | 0.0 | 0.0 | 0.00 | 0.00 | 0.00 | 55 | 998.1 |
| 20260505023010 | 64 | 164 | 0.0 | 0.0 | 0.00 | 0.00 | 0.00 | 54 | 998.3 |
| 20260505021505 | 64 | 175 | 0.0 | 0.0 | 0.00 | 0.00 | 0.00 | 54 | 998.4 |
| 20260505020008 | 64 | 170 | 0.0 | 0.0 | 0.00 | 0.00 | 0.00 | 53 | 998.3 |
| 20260505014504 | 65 | 157 | 0.0 | 0.0 | 0.00 | 0.00 | 0.00 | 53 | 998.0 |
| 20260505013004 | 65 | 168 | 0.0 | 0.0 | 0.00 | 0.00 | 0.00 | 54 | 998.1 |
| 20260505011503 | 66 | 154 | 0.0 | 0.0 | 0.00 | 0.00 | 0.00 | 52 | 998.1 |
| 20260505010003 | 66 | 178 | 0.0 | 0.0 | 0.00 | 0.00 | 0.00 | 51 | 997.8 |
| 20260505004502 | 67 | 159 | 0.0 | 0.0 | 0.00 | 0.00 | 0.00 | 50 | 997.7 |
| 20260505003001 | 68 | 151 | 0.0 | 0.0 | 0.00 | 0.00 | 0.00 | 47 | 997.6 |
| 20260505001501 | 68 | 173 | 0.0 | 0.0 | 0.00 | 0.00 | 0.00 | 45 | 997.3 |
| 20260505000002 | 69 | 171 | 0.0 | 0.0 | 0.00 | 0.00 | 0.00 | 44 | 997.3 |
| 20260504234600 | 69 | 186 | 0.0 | 0.0 | 0.00 | 0.00 | 0.00 | 43 | 997.2 |
| 20260504233102 | 70 | 240 | 0.0 | 0.0 | 0.00 | 0.00 | 0.00 | 43 | 997.3 |
| 20260504231559 | 70 | 203 | 0.0 | 0.0 | 0.00 | 0.00 | 0.00 | 42 | 997.3 |
| 20260504230108 | 70 | 177 | 0.0 | 0.0 | 0.00 | 0.00 | 0.00 | 42 | 997.2 |
| 20260504224559 | 70 | 199 | 0.0 | 0.0 | 0.00 | 0.00 | 0.00 | 41 | 997.2 |
| 20260504223104 | 70 | 186 | 0.0 | 0.0 | 0.00 | 0.00 | 0.00 | 41 | 997.3 |
| 20260504221604 | 70 | 197 | 0.0 | 0.0 | 0.00 | 0.00 | 0.00 | 40 | 997.3 |
| 20260504220059 | 70 | 228 | 0.0 | 0.0 | 0.00 | 0.00 | 0.00 | 41 | 997.3 |
| 20260504214557 | 70 | 191 | 0.0 | 0.0 | 0.00 | 0.00 | 0.00 | 40 | 997.5 |
| 20260504213054 | 70 | 195 | 0.0 | 0.0 | 0.00 | 0.00 | 0.00 | 40 | 997.5 |
| 20260504211553 | 70 | 235 | 0.0 | 0.0 | 0.00 | 0.00 | 0.00 | 40 | 997.5 |
| 20260504210053 | 70 | 194 | 0.0 | 0.0 | 0.00 | 0.00 | 0.00 | 40 | 997.5 |
| 20260504204549 | 70 | 235 | 0.0 | 0.0 | 0.00 | 0.00 | 0.00 | 40 | 997.5 |
| 20260504203101 | 70 | 203 | 0.0 | 0.0 | 0.00 | 0.00 | 0.00 | 41 | 997.6 |
| 20260504201547 | 69 | 210 | 0.0 | 0.0 | 0.00 | 0.00 | 0.00 | 41 | 997.8 |
| 20260504200046 | 70 | 190 | 0.0 | 0.0 | 0.00 | 0.00 | 0.00 | 40 | 997.9 |
| 20260504194544 | 69 | 195 | 0.0 | 0.0 | 0.00 | 0.00 | 0.00 | 38 | 998.1 |
| 20260504193043 | 69 | 235 | 0.0 | 0.0 | 0.00 | 0.00 | 0.00 | 40 | 998.2 |
| 20260504191541 | 69 | 205 | 0.0 | 0.0 | 0.00 | 0.00 | 0.00 | 39 | 998.6 |
| 20260504190038 | 68 | 170 | 0.0 | 0.0 | 0.00 | 0.00 | 0.00 | 40 | 998.6 |
| 20260504184537 | 68 | 173 | 0.0 | 0.0 | 0.00 | 0.00 | 0.00 | 39 | 998.7 |
| 20260504183034 | 68 | 170 | 0.0 | 0.0 | 0.00 | 0.00 | 0.00 | 40 | 999.0 |
| 20260504181533 | 67 | 202 | 0.0 | 0.0 | 0.00 | 0.00 | 0.00 | 39 | 999.2 |
| 20260504180030 | 67 | 278 | 0.0 | 0.0 | 0.00 | 0.00 | 0.00 | 40 | 999.3 |
| 20260504174529 | 67 | 193 | 0.0 | 0.0 | 0.00 | 0.00 | 0.00 | 39 | 999.5 |
| 20260504173027 | 67 | 277 | 0.0 | 0.0 | 0.00 | 0.00 | 0.00 | 40 | 999.8 |
| 20260504171525 | 67 | 195 | 0.0 | 0.0 | 0.00 | 0.00 | 0.00 | 40 | 1000.0 |
| 20260504081512 | 49 | 203 | 0.0 | 0.0 | 0.00 | 0.00 | 0.00 | 69 | 1002.0 |